,,Stat6,,Stat2,,Stat8,,Stat9,,Stat10,,Wind1,,Wind1,
time,status,PA1M_AVG,status,PR1M_SUM,status,RH1M_AVG,status,SR1M_AVG,status,TA1M_AVG,status,W1dAve1m,status,W1sAve1m,
2004-07-19, 00:00:00,VALID,917.896,VALID,0,VALID,100,VALID,0,VALID,19.2722,VALID,113,VALID,0.685938,
2004-07-19, 00:01:00,VALID,917.893,VALID,0,VALID,100,VALID,-0.0169808,VALID,19.2399,VALID,103,VALID,0.816592,
2004-07-19, 00:02:00,VALID,917.902,VALID,0,VALID,100,VALID,0,VALID,19.2526,VALID,94,VALID,0.518787,
2004-07-19, 00:03:00,VALID,917.908,VALID,0,VALID,100,VALID,-0.0339617,VALID,19.2558,VALID,99,VALID,0.763494,
2004-07-19, 00:04:00,VALID,917.92,VALID,0,VALID,100,VALID,-0.0339617,VALID,19.2305,VALID,97,VALID,0.728743,
2004-07-19, 00:05:00,VALID,917.917,VALID,0,VALID,100,VALID,-0.0169808,VALID,19.2141,VALID,94,VALID,0.57758,
2004-07-19, 00:06:00,VALID,917.933,VALID,0,VALID,100,VALID,-0.0169808,VALID,19.2469,VALID,85,VALID,0.463224,
2004-07-19, 00:07:00,VALID,917.937,VALID,0,VALID,100,VALID,0,VALID,19.2918,VALID,88,VALID,0.510742,
2004-07-19, 00:08:00,VALID,917.947,VALID,0,VALID,100,VALID,-0.0509425,VALID,19.3211,VALID,115,VALID,0.556771,
2004-07-19, 00:09:00,VALID,917.933,VALID,0,VALID,100,VALID,-0.0169808,VALID,19.3112,VALID,140,VALID,0.594113,
2004-07-19, 00:10:00,VALID,917.919,VALID,0,VALID,100,VALID,-0.0509425,VALID,19.3112,VALID,136,VALID,0.948583,
2004-07-19, 00:11:00,VALID,917.913,VALID,0,VALID,100,VALID,-0.0509425,VALID,19.3008,VALID,122,VALID,0.82848,
2004-07-19, 00:12:00,VALID,917.909,VALID,0,VALID,100,VALID,-0.0849042,VALID,19.2881,VALID,132,VALID,0.805043,
2004-07-19, 00:13:00,VALID,917.918,VALID,0,VALID,100,VALID,-0.0509425,VALID,19.2886,VALID,150,VALID,0.474466,
2004-07-19, 00:14:00,VALID,917.914,VALID,0,VALID,100,VALID,-0.0169808,VALID,19.2921,VALID,133,VALID,0.651634,
2004-07-19, 00:15:00,VALID,917.91,VALID,0,VALID,100,VALID,-0.0339617,VALID,19.2888,VALID,152,VALID,0.631483,
2004-07-19, 00:16:00,VALID,917.929,VALID,0,VALID,100,VALID,-0.0679233,VALID,19.2692,VALID,147,VALID,1.00446,
2004-07-19, 00:17:00,VALID,917.921,VALID,0,VALID,100,VALID,-0.0339617,VALID,19.2436,VALID,149,VALID,1.05605,
2004-07-19, 00:18:00,VALID,917.914,VALID,0,VALID,100,VALID,-0.0509425,VALID,19.2305,VALID,146,VALID,0.899528,
2004-07-19, 00:19:00,VALID,917.906,VALID,0,VALID,100,VALID,-0.0339617,VALID,19.2339,VALID,157,VALID,1.24237,
2004-07-19, 00:20:00,VALID,917.908,VALID,0,VALID,100,VALID,-0.0679233,VALID,19.2243,VALID,156,VALID,1.07317,
2004-07-19, 00:21:00,VALID,917.896,VALID,0,VALID,100,VALID,-0.0339617,VALID,19.2111,VALID,142,VALID,1.16443,
2004-07-19, 00:22:00,VALID,917.902,VALID,0,VALID,100,VALID,-0.0339617,VALID,19.1979,VALID,149,VALID,0.834847,
2004-07-19, 00:23:00,VALID,917.891,VALID,0,VALID,100,VALID,0,VALID,19.1756,VALID,149,VALID,0.835547,
2004-07-19, 00:24:00,VALID,917.884,VALID,0,VALID,100,VALID,-0.0509425,VALID,19.1627,VALID,142,VALID,0.484747,
2004-07-19, 00:25:00,VALID,917.87,VALID,0,VALID,100,VALID,-0.0509425,VALID,19.1594,VALID,140,VALID,0.405523,
2004-07-19, 00:26:00,VALID,917.869,VALID,0,VALID,100,VALID,-0.0169808,VALID,19.153,VALID,154,VALID,0.803234,
2004-07-19, 00:27:00,VALID,917.872,VALID,0,VALID,100,VALID,-0.0339617,VALID,19.1631,VALID,162,VALID,0.849479,
2004-07-19, 00:28:00,VALID,917.872,VALID,0,VALID,100,VALID,0,VALID,19.1562,VALID,160,VALID,0.425877,
2004-07-19, 00:29:00,VALID,917.855,VALID,0,VALID,100,VALID,-0.0509425,VALID,19.1532,VALID,159,VALID,0.305804,
2004-07-19, 00:30:00,VALID,917.867,VALID,0,VALID,100,VALID,-0.0509425,VALID,19.1535,VALID,154,VALID,0.35992,
2004-07-19, 00:31:00,VALID,917.852,VALID,0,VALID,99.9112,VALID,-0.0339617,VALID,19.1438,VALID,133,VALID,0.678961,
2004-07-19, 00:32:00,VALID,917.85,VALID,0,VALID,99.7739,VALID,-0.0679233,VALID,19.1209,VALID,140,VALID,0.883168,
2004-07-19, 00:33:00,VALID,917.846,VALID,0,VALID,99.6518,VALID,-0.0169808,VALID,19.105,VALID,154,VALID,0.662064,
2004-07-19, 00:34:00,VALID,917.836,VALID,0,VALID,99.6111,VALID,-0.0339617,VALID,19.1147,VALID,165,VALID,0.97218,
2004-07-19, 00:35:00,VALID,917.812,VALID,0,VALID,99.4738,VALID,-0.0849042,VALID,19.0951,VALID,169,VALID,0.354688,
2004-07-19, 00:36:00,VALID,917.803,VALID,0,VALID,99.3873,VALID,-0.0679233,VALID,19.0956,VALID,159,VALID,0.385938,
2004-07-19, 00:37:00,VALID,917.793,VALID,0,VALID,99.3632,VALID,-0.0509425,VALID,19.0889,VALID,146,VALID,0.521484,
2004-07-19, 00:38:00,VALID,917.779,VALID,0,VALID,99.3047,VALID,-0.0849042,VALID,19.0926,VALID,119,VALID,0.81901,
2004-07-19, 00:39:00,VALID,917.779,VALID,0,VALID,99.1457,VALID,-0.0679233,VALID,19.0727,VALID,113,VALID,0.730114,
2004-07-19, 00:40:00,VALID,917.79,VALID,0,VALID,99.0389,VALID,-0.0339617,VALID,19.0757,VALID,117,VALID,0.233073,
2004-07-19, 00:41:00,VALID,917.784,VALID,0,VALID,98.9245,VALID,-0.0509425,VALID,19.0764,VALID,79,VALID,0.49184,
2004-07-19, 00:42:00,VALID,917.788,VALID,0,VALID,98.7859,VALID,-0.0679233,VALID,19.0596,VALID,88,VALID,0.513579,
2004-07-19, 00:43:00,VALID,917.789,VALID,0,VALID,98.5672,VALID,-0.0339617,VALID,19.0529,VALID,114,VALID,0.909489,
2004-07-19, 00:44:00,VALID,917.787,VALID,0,VALID,98.5252,VALID,-0.0169808,VALID,19.063,VALID,129,VALID,0.864826,
2004-07-19, 00:45:00,VALID,917.775,VALID,0,VALID,98.6867,VALID,-0.0169808,VALID,19.0727,VALID,143,VALID,0.831101,
2004-07-19, 00:46:00,VALID,917.773,VALID,0,VALID,98.646,VALID,0,VALID,19.1112,VALID,129,VALID,1.26842,
2004-07-19, 00:47:00,VALID,917.759,VALID,0,VALID,98.5239,VALID,0,VALID,19.1244,VALID,122,VALID,0.975535,
2004-07-19, 00:48:00,VALID,917.747,VALID,0,VALID,98.6129,VALID,-0.0339617,VALID,19.1306,VALID,142,VALID,0.872024,
2004-07-19, 00:49:00,VALID,917.752,VALID,0,VALID,98.7693,VALID,-0.0339617,VALID,19.1597,VALID,135,VALID,1.0207,
2004-07-19, 00:50:00,VALID,917.737,VALID,0,VALID,98.3955,VALID,-0.0339617,VALID,19.1763,VALID,86,VALID,0.586648,
2004-07-19, 00:51:00,VALID,917.724,VALID,0,VALID,98.2302,VALID,-0.0339617,VALID,19.1341,VALID,128,VALID,0.665707,
2004-07-19, 00:52:00,VALID,917.716,VALID,0,VALID,98.3701,VALID,0,VALID,19.1246,VALID,149,VALID,0.793555,
2004-07-19, 00:53:00,VALID,917.713,VALID,0,VALID,98.6104,VALID,-0.0169808,VALID,19.1309,VALID,147,VALID,0.841146,
2004-07-19, 00:54:00,VALID,917.711,VALID,0,VALID,98.6702,VALID,0,VALID,19.1306,VALID,160,VALID,0.889898,
2004-07-19, 00:55:00,VALID,917.686,VALID,0,VALID,98.763,VALID,-0.0509425,VALID,19.1472,VALID,142,VALID,0.980097,
2004-07-19, 00:56:00,VALID,917.675,VALID,0,VALID,98.8253,VALID,-0.0339617,VALID,19.147,VALID,153,VALID,1.30469,
2004-07-19, 00:57:00,VALID,917.662,VALID,0,VALID,98.9029,VALID,-0.0509425,VALID,19.1666,VALID,143,VALID,1.04002,
2004-07-19, 00:58:00,VALID,917.656,VALID,0,VALID,98.8838,VALID,-0.0169808,VALID,19.1793,VALID,149,VALID,1.52162,
2004-07-19, 00:59:00,VALID,917.636,VALID,0,VALID,98.8673,VALID,-0.0339617,VALID,19.2017,VALID,144,VALID,1.33703,
2004-07-19, 01:00:00,VALID,917.634,VALID,0,VALID,98.7172,VALID,-0.0509425,VALID,19.2017,VALID,154,VALID,1.51181,
2004-07-19, 01:01:00,VALID,917.633,VALID,0,VALID,98.6562,VALID,-0.0679233,VALID,19.2213,VALID,149,VALID,1.26163,
2004-07-19, 01:02:00,VALID,917.624,VALID,0,VALID,98.6549,VALID,-0.101885,VALID,19.2118,VALID,148,VALID,1.63053,
2004-07-19, 01:03:00,VALID,917.597,VALID,0,VALID,98.7287,VALID,-0.0169808,VALID,19.2118,VALID,159,VALID,1.57546,
2004-07-19, 01:04:00,VALID,917.591,VALID,0,VALID,98.8024,VALID,-0.0339617,VALID,19.2222,VALID,152,VALID,1.42525,
2004-07-19, 01:05:00,VALID,917.565,VALID,0,VALID,98.8393,VALID,-0.0339617,VALID,19.2158,VALID,158,VALID,1.37926,
2004-07-19, 01:06:00,VALID,917.559,VALID,0,VALID,98.8787,VALID,-0.0339617,VALID,19.2054,VALID,140,VALID,1.77689,
2004-07-19, 01:07:00,VALID,917.54,VALID,0,VALID,98.7922,VALID,-0.0849042,VALID,19.2126,VALID,147,VALID,1.2601,
2004-07-19, 01:08:00,VALID,917.522,VALID,0,VALID,98.7757,VALID,-0.0849042,VALID,19.2054,VALID,146,VALID,1.53888,
2004-07-19, 01:09:00,VALID,917.497,VALID,0,VALID,98.7019,VALID,-0.0509425,VALID,19.2121,VALID,143,VALID,1.27483,
2004-07-19, 01:10:00,VALID,917.481,VALID,0,VALID,98.7668,VALID,-0.0339617,VALID,19.2081,VALID,133,VALID,1.42365,
2004-07-19, 01:11:00,VALID,917.448,VALID,0,VALID,98.5888,VALID,-0.0509425,VALID,19.231,VALID,140,VALID,1.63821,
2004-07-19, 01:12:00,VALID,917.436,VALID,0,VALID,98.4832,VALID,-0.0509425,VALID,19.2312,VALID,157,VALID,1.33053,
2004-07-19, 01:13:00,VALID,917.416,VALID,0,VALID,98.4947,VALID,-0.0679233,VALID,19.2344,VALID,144,VALID,1.69005,
2004-07-19, 01:14:00,VALID,917.405,VALID,0,VALID,98.4565,VALID,-0.0509425,VALID,19.2312,VALID,142,VALID,1.95052,
2004-07-19, 01:15:00,VALID,917.399,VALID,0,VALID,98.4794,VALID,-0.0169808,VALID,19.2243,VALID,153,VALID,1.57641,
2004-07-19, 01:16:00,VALID,917.372,VALID,0,VALID,98.4082,VALID,-0.0339617,VALID,19.2307,VALID,151,VALID,1.69949,
2004-07-19, 01:17:00,VALID,917.362,VALID,0,VALID,98.2505,VALID,-0.0169808,VALID,19.231,VALID,154,VALID,1.48056,
2004-07-19, 01:18:00,VALID,917.36,VALID,0,VALID,98.1488,VALID,-0.0169808,VALID,19.221,VALID,146,VALID,1.11055,
2004-07-19, 01:19:00,VALID,917.34,VALID,0,VALID,98.2187,VALID,-0.0679233,VALID,19.2252,VALID,151,VALID,1.53725,
2004-07-19, 01:20:00,VALID,917.312,VALID,0,VALID,98.2747,VALID,-0.0679233,VALID,19.2056,VALID,151,VALID,1.79236,
2004-07-19, 01:21:00,VALID,917.292,VALID,0,VALID,98.1844,VALID,-0.0509425,VALID,19.1795,VALID,151,VALID,1.34022,
2004-07-19, 01:22:00,VALID,917.256,VALID,0,VALID,98.2887,VALID,-0.0169808,VALID,19.1761,VALID,145,VALID,1.8748,
2004-07-19, 01:23:00,VALID,917.259,VALID,0,VALID,98.2849,VALID,0.0339617,VALID,19.1552,VALID,150,VALID,1.65021,
2004-07-19, 01:24:00,VALID,917.236,VALID,0,VALID,98.3395,VALID,0.0339617,VALID,19.1398,VALID,134,VALID,1.82031,
2004-07-19, 01:25:00,VALID,917.232,VALID,0,VALID,98.3815,VALID,0.0509425,VALID,19.1329,VALID,144,VALID,1.37131,
2004-07-19, 01:26:00,VALID,917.227,VALID,0,VALID,98.3675,VALID,0.0509425,VALID,19.1202,VALID,135,VALID,1.59133,
2004-07-19, 01:27:00,VALID,917.215,VALID,0,VALID,98.3103,VALID,0.0849042,VALID,19.1239,VALID,129,VALID,1.57701,
2004-07-19, 01:28:00,VALID,917.193,VALID,0,VALID,98.1513,VALID,0.0169808,VALID,19.1237,VALID,128,VALID,1.49562,
2004-07-19, 01:29:00,VALID,917.163,VALID,0,VALID,98.159,VALID,0.0169808,VALID,19.1041,VALID,129,VALID,1.42891,
2004-07-19, 01:30:00,VALID,917.16,VALID,0,VALID,98.1094,VALID,0.0169808,VALID,19.0944,VALID,120,VALID,1.65383,
2004-07-19, 01:31:00,VALID,917.14,VALID,0,VALID,98.0165,VALID,0.0339617,VALID,19.0556,VALID,127,VALID,1.67094,
2004-07-19, 01:32:00,VALID,917.135,VALID,0,VALID,97.8665,VALID,0.0509425,VALID,19.0203,VALID,111,VALID,1.25327,
2004-07-19, 01:33:00,VALID,917.122,VALID,0,VALID,98.1196,VALID,0.0679233,VALID,19.001,VALID,127,VALID,1.49676,
2004-07-19, 01:34:00,VALID,917.118,VALID,0,VALID,98.1043,VALID,0.0849042,VALID,18.9878,VALID,125,VALID,0.962754,
2004-07-19, 01:35:00,VALID,917.098,VALID,0,VALID,98.1285,VALID,0.0509425,VALID,18.9878,VALID,139,VALID,1.15332,
2004-07-19, 01:36:00,VALID,917.083,VALID,0,VALID,98.2365,VALID,0.0679233,VALID,18.9908,VALID,143,VALID,1.29706,
2004-07-19, 01:37:00,VALID,917.08,VALID,0,VALID,98.131,VALID,0.0169808,VALID,18.9851,VALID,114,VALID,0.98457,
2004-07-19, 01:38:00,VALID,917.065,VALID,0,VALID,98.0865,VALID,-0.0169808,VALID,18.9632,VALID,130,VALID,1.13605,
2004-07-19, 01:39:00,VALID,917.06,VALID,0,VALID,97.9784,VALID,-0.0169808,VALID,18.957,VALID,122,VALID,1.4875,
2004-07-19, 01:40:00,VALID,917.046,VALID,0,VALID,97.9034,VALID,0,VALID,18.9155,VALID,117,VALID,1.3145,
2004-07-19, 01:41:00,VALID,917.054,VALID,0,VALID,98.0636,VALID,-0.0509425,VALID,18.876,VALID,129,VALID,1.3176,
2004-07-19, 01:42:00,VALID,917.056,VALID,0,VALID,97.9174,VALID,-0.0339617,VALID,18.8539,VALID,115,VALID,1.22111,
2004-07-19, 01:43:00,VALID,917.062,VALID,0,VALID,97.9059,VALID,-0.0509425,VALID,18.7983,VALID,86,VALID,0.901042,
2004-07-19, 01:44:00,VALID,917.056,VALID,0,VALID,98.0382,VALID,-0.0509425,VALID,18.7794,VALID,80,VALID,0.310501,
2004-07-19, 01:45:00,VALID,917.049,VALID,0,VALID,98.0077,VALID,-0.0679233,VALID,18.7503,VALID,88,VALID,0.490327,
2004-07-19, 01:46:00,VALID,917.042,VALID,0,VALID,97.9631,VALID,-0.0509425,VALID,18.7148,VALID,77,VALID,0.478338,
2004-07-19, 01:47:00,VALID,917.021,VALID,0,VALID,97.9314,VALID,-0.0169808,VALID,18.6922,VALID,76,VALID,0.484375,
2004-07-19, 01:48:00,VALID,916.99,VALID,0,VALID,98.0789,VALID,-0.0679233,VALID,18.647,VALID,118,VALID,0.52832,
2004-07-19, 01:49:00,VALID,916.967,VALID,0,VALID,98.1234,VALID,-0.0509425,VALID,18.6445,VALID,83,VALID,0.636719,
2004-07-19, 01:50:00,VALID,916.931,VALID,0,VALID,98.1246,VALID,-0.0509425,VALID,18.6216,VALID,93,VALID,0.838086,
2004-07-19, 01:51:00,VALID,916.917,VALID,0,VALID,98.2365,VALID,-0.0509425,VALID,18.6089,VALID,108,VALID,0.610978,
2004-07-19, 01:52:00,VALID,916.898,VALID,0,VALID,98.3688,VALID,-0.0339617,VALID,18.5859,VALID,108,VALID,0.998698,
2004-07-19, 01:53:00,VALID,916.895,VALID,0,VALID,98.4375,VALID,-0.0509425,VALID,18.5826,VALID,122,VALID,0.979539,
2004-07-19, 01:54:00,VALID,916.902,VALID,0,VALID,98.4171,VALID,-0.0339617,VALID,18.5829,VALID,123,VALID,0.802024,
2004-07-19, 01:55:00,VALID,916.909,VALID,0,VALID,98.3319,VALID,-0.0509425,VALID,18.5534,VALID,129,VALID,0.685547,
2004-07-19, 01:56:00,VALID,916.907,VALID,0,VALID,98.3777,VALID,-0.0509425,VALID,18.5305,VALID,135,VALID,1.31492,
2004-07-19, 01:57:00,VALID,916.914,VALID,0,VALID,98.5036,VALID,-0.0509425,VALID,18.5308,VALID,120,VALID,0.740234,
2004-07-19, 01:58:00,VALID,916.891,VALID,0,VALID,98.4476,VALID,-0.0679233,VALID,18.5347,VALID,124,VALID,0.911585,
2004-07-19, 01:59:00,VALID,916.887,VALID,0,VALID,98.4514,VALID,-0.0509425,VALID,18.5181,VALID,115,VALID,1.16515,
2004-07-19, 02:00:00,VALID,916.858,VALID,0,VALID,98.3751,VALID,-0.0509425,VALID,18.5215,VALID,116,VALID,0.758203,
2004-07-19, 02:01:00,VALID,916.858,VALID,0,VALID,98.3472,VALID,-0.0679233,VALID,18.4989,VALID,130,VALID,0.87449,
2004-07-19, 02:02:00,VALID,916.841,VALID,0,VALID,98.4324,VALID,-0.0509425,VALID,18.5155,VALID,145,VALID,0.794085,
2004-07-19, 02:03:00,VALID,916.85,VALID,0,VALID,98.4082,VALID,-0.0339617,VALID,18.4918,VALID,143,VALID,0.538885,
2004-07-19, 02:04:00,VALID,916.839,VALID,0,VALID,98.4527,VALID,-0.0339617,VALID,18.5183,VALID,138,VALID,1.127,
2004-07-19, 02:05:00,VALID,916.831,VALID,0,VALID,98.4603,VALID,-0.0509425,VALID,18.5213,VALID,150,VALID,1.38504,
2004-07-19, 02:06:00,VALID,916.824,VALID,0,VALID,98.5023,VALID,-0.0679233,VALID,18.5637,VALID,144,VALID,1.61753,
2004-07-19, 02:07:00,VALID,916.817,VALID,0,VALID,98.4235,VALID,0,VALID,18.5792,VALID,152,VALID,1.63765,
2004-07-19, 02:08:00,VALID,916.808,VALID,0,VALID,98.3523,VALID,-0.0679233,VALID,18.5856,VALID,151,VALID,1.06002,
2004-07-19, 02:09:00,VALID,916.789,VALID,0,VALID,98.276,VALID,-0.0509425,VALID,18.6119,VALID,148,VALID,1.13548,
2004-07-19, 02:10:00,VALID,916.774,VALID,0,VALID,98.22,VALID,-0.0849042,VALID,18.6189,VALID,145,VALID,1.41484,
2004-07-19, 02:11:00,VALID,916.764,VALID,0,VALID,98.2531,VALID,-0.0849042,VALID,18.6126,VALID,139,VALID,1.07961,
2004-07-19, 02:12:00,VALID,916.749,VALID,0,VALID,98.206,VALID,-0.101885,VALID,18.5993,VALID,139,VALID,0.936719,
2004-07-19, 02:13:00,VALID,916.741,VALID,0,VALID,98.2264,VALID,-0.0849042,VALID,18.5734,VALID,133,VALID,1.08896,
2004-07-19, 02:14:00,VALID,916.737,VALID,0,VALID,98.2632,VALID,-0.0509425,VALID,18.567,VALID,114,VALID,1.28248,
2004-07-19, 02:15:00,VALID,916.744,VALID,0,VALID,98.3395,VALID,-0.0509425,VALID,18.5441,VALID,115,VALID,0.990916,
2004-07-19, 02:16:00,VALID,916.749,VALID,0,VALID,98.398,VALID,-0.0849042,VALID,18.5379,VALID,112,VALID,0.844494,
2004-07-19, 02:17:00,VALID,916.755,VALID,0,VALID,98.4387,VALID,-0.0679233,VALID,18.5255,VALID,120,VALID,1.04812,
2004-07-19, 02:18:00,VALID,916.74,VALID,0,VALID,98.5163,VALID,-0.0679233,VALID,18.5024,VALID,109,VALID,0.811914,
2004-07-19, 02:19:00,VALID,916.724,VALID,0,VALID,98.4909,VALID,-0.0679233,VALID,18.4832,VALID,99,VALID,1.0043,
2004-07-19, 02:20:00,VALID,916.71,VALID,0,VALID,98.721,VALID,-0.0679233,VALID,18.4768,VALID,128,VALID,1.24855,
2004-07-19, 02:21:00,VALID,916.696,VALID,0,VALID,98.866,VALID,-0.0339617,VALID,18.4835,VALID,127,VALID,1.14098,
2004-07-19, 02:22:00,VALID,916.676,VALID,0,VALID,98.9118,VALID,-0.0679233,VALID,18.4832,VALID,110,VALID,1.05771,
2004-07-19, 02:23:00,VALID,916.657,VALID,0,VALID,98.7922,VALID,-0.0509425,VALID,18.4766,VALID,122,VALID,0.634487,
2004-07-19, 02:24:00,VALID,916.643,VALID,0,VALID,98.8431,VALID,-0.0679233,VALID,18.4636,VALID,129,VALID,0.912157,
2004-07-19, 02:25:00,VALID,916.638,VALID,0,VALID,98.6752,VALID,-0.101885,VALID,18.4318,VALID,115,VALID,0.859738,
2004-07-19, 02:26:00,VALID,916.636,VALID,0,VALID,98.8164,VALID,-0.101885,VALID,18.4095,VALID,109,VALID,0.866997,
2004-07-19, 02:27:00,VALID,916.636,VALID,0,VALID,99.0097,VALID,-0.0679233,VALID,18.3889,VALID,106,VALID,1.29287,
2004-07-19, 02:28:00,VALID,916.659,VALID,0,VALID,98.9436,VALID,-0.0679233,VALID,18.3898,VALID,60,VALID,0.505996,
2004-07-19, 02:29:00,VALID,916.669,VALID,0,VALID,98.9715,VALID,-0.0849042,VALID,18.3702,VALID,100,VALID,0.765253,
2004-07-19, 02:30:00,VALID,916.657,VALID,0,VALID,98.9614,VALID,-0.0679233,VALID,18.3613,VALID,89,VALID,0.591206,
2004-07-19, 02:31:00,VALID,916.664,VALID,0,VALID,99.03,VALID,-0.0849042,VALID,18.3384,VALID,105,VALID,1.05809,
2004-07-19, 02:32:00,VALID,916.663,VALID,0,VALID,99.3009,VALID,-0.0679233,VALID,18.3513,VALID,121,VALID,1.03354,
2004-07-19, 02:33:00,VALID,916.656,VALID,0,VALID,99.2793,VALID,-0.0679233,VALID,18.3506,VALID,107,VALID,0.839472,
2004-07-19, 02:34:00,VALID,916.634,VALID,0,VALID,99.3021,VALID,-0.0509425,VALID,18.3509,VALID,119,VALID,0.848133,
2004-07-19, 02:35:00,VALID,916.631,VALID,0,VALID,99.4725,VALID,-0.0679233,VALID,18.3573,VALID,135,VALID,0.976563,
2004-07-19, 02:36:00,VALID,916.62,VALID,0,VALID,99.442,VALID,-0.0509425,VALID,18.3504,VALID,132,VALID,0.531783,
2004-07-19, 02:37:00,VALID,916.606,VALID,0,VALID,99.5628,VALID,-0.0509425,VALID,18.3735,VALID,140,VALID,1.14009,
2004-07-19, 02:38:00,VALID,916.577,VALID,0,VALID,99.5755,VALID,0.0339617,VALID,18.3721,VALID,129,VALID,1.27344,
2004-07-19, 02:39:00,VALID,916.58,VALID,0,VALID,99.6442,VALID,0,VALID,18.3882,VALID,136,VALID,1.04204,
2004-07-19, 02:40:00,VALID,916.556,VALID,0,VALID,99.5717,VALID,0.0339617,VALID,18.3852,VALID,118,VALID,1.03887,
2004-07-19, 02:41:00,VALID,916.536,VALID,0,VALID,99.5527,VALID,0.0339617,VALID,18.382,VALID,130,VALID,0.988009,
2004-07-19, 02:42:00,VALID,916.53,VALID,0,VALID,99.3899,VALID,0.0339617,VALID,18.3589,VALID,125,VALID,1.11133,
2004-07-19, 02:43:00,VALID,916.502,VALID,0,VALID,99.6124,VALID,0,VALID,18.3626,VALID,136,VALID,1.24368,
2004-07-19, 02:44:00,VALID,916.493,VALID,0,VALID,99.6963,VALID,0.0339617,VALID,18.3723,VALID,140,VALID,1.20792,
2004-07-19, 02:45:00,VALID,916.479,VALID,0,VALID,99.6493,VALID,0.0169808,VALID,18.3949,VALID,142,VALID,1.44941,
2004-07-19, 02:46:00,VALID,916.471,VALID,0,VALID,99.5081,VALID,0.0339617,VALID,18.3915,VALID,130,VALID,1.26445,
2004-07-19, 02:47:00,VALID,916.46,VALID,0,VALID,99.5883,VALID,0.0679233,VALID,18.388,VALID,152,VALID,1.04821,
2004-07-19, 02:48:00,VALID,916.452,VALID,0,VALID,99.6684,VALID,0.0509425,VALID,18.4108,VALID,122,VALID,1.375,
2004-07-19, 02:49:00,VALID,916.432,VALID,0,VALID,99.5654,VALID,0.0169808,VALID,18.4143,VALID,121,VALID,1.31901,
2004-07-19, 02:50:00,VALID,916.431,VALID,0,VALID,99.5908,VALID,0.0339617,VALID,18.4074,VALID,150,VALID,0.915698,
2004-07-19, 02:51:00,VALID,916.417,VALID,0,VALID,99.6671,VALID,0.0509425,VALID,18.427,VALID,137,VALID,1.32213,
2004-07-19, 02:52:00,VALID,916.416,VALID,0,VALID,99.6277,VALID,0.0339617,VALID,18.4436,VALID,135,VALID,1.50692,
2004-07-19, 02:53:00,VALID,916.399,VALID,0,VALID,99.6824,VALID,0.0679233,VALID,18.4627,VALID,132,VALID,1.82403,
2004-07-19, 02:54:00,VALID,916.398,VALID,0,VALID,99.6035,VALID,0.0679233,VALID,18.4885,VALID,142,VALID,1.54688,
2004-07-19, 02:55:00,VALID,916.406,VALID,0,VALID,99.4967,VALID,0.0509425,VALID,18.4754,VALID,136,VALID,1.52663,
2004-07-19, 02:56:00,VALID,916.422,VALID,0,VALID,99.442,VALID,0.0169808,VALID,18.4722,VALID,143,VALID,1.52699,
2004-07-19, 02:57:00,VALID,916.429,VALID,0,VALID,99.4916,VALID,0.0339617,VALID,18.4754,VALID,146,VALID,1.41352,
2004-07-19, 02:58:00,VALID,916.429,VALID,0,VALID,99.4408,VALID,0.0339617,VALID,18.4724,VALID,135,VALID,1.51916,
2004-07-19, 02:59:00,VALID,916.407,VALID,0,VALID,99.5247,VALID,0,VALID,18.4823,VALID,134,VALID,1.52232,
2004-07-19, 03:00:00,VALID,916.401,VALID,0,VALID,99.5463,VALID,0.0169808,VALID,18.5049,VALID,137,VALID,2.16116,
2004-07-19, 03:01:00,VALID,916.383,VALID,0,VALID,99.4827,VALID,0.0339617,VALID,18.5139,VALID,131,VALID,1.64528,
2004-07-19, 03:02:00,VALID,916.368,VALID,0,VALID,99.3416,VALID,0.0169808,VALID,18.5236,VALID,130,VALID,1.59395,
2004-07-19, 03:03:00,VALID,916.35,VALID,0,VALID,99.3848,VALID,0.0339617,VALID,18.5402,VALID,140,VALID,1.74453,
2004-07-19, 03:04:00,VALID,916.336,VALID,0,VALID,99.3161,VALID,0.0509425,VALID,18.5266,VALID,133,VALID,1.29725,
2004-07-19, 03:05:00,VALID,916.316,VALID,0,VALID,99.2564,VALID,0.0339617,VALID,18.5437,VALID,131,VALID,1.21875,
2004-07-19, 03:06:00,VALID,916.317,VALID,0,VALID,99.2042,VALID,0.0509425,VALID,18.5305,VALID,137,VALID,1.48711,
2004-07-19, 03:07:00,VALID,916.312,VALID,0,VALID,99.236,VALID,-0.0169808,VALID,18.5347,VALID,141,VALID,1.516,
2004-07-19, 03:08:00,VALID,916.293,VALID,0,VALID,99.2144,VALID,-0.0679233,VALID,18.5414,VALID,150,VALID,1.91406,
2004-07-19, 03:09:00,VALID,916.291,VALID,0,VALID,99.1496,VALID,0,VALID,18.5444,VALID,155,VALID,1.61163,
2004-07-19, 03:10:00,VALID,916.281,VALID,0,VALID,99.086,VALID,-0.0849042,VALID,18.5548,VALID,163,VALID,1.57322,
2004-07-19, 03:11:00,VALID,916.26,VALID,0,VALID,99.0084,VALID,-0.0339617,VALID,18.5448,VALID,143,VALID,1.26146,
2004-07-19, 03:12:00,VALID,916.234,VALID,0,VALID,99.0885,VALID,0,VALID,18.5222,VALID,149,VALID,1.51004,
2004-07-19, 03:13:00,VALID,916.204,VALID,0,VALID,99.0961,VALID,-0.0679233,VALID,18.519,VALID,155,VALID,1.6309,
2004-07-19, 03:14:00,VALID,916.201,VALID,0,VALID,99.1139,VALID,-0.0339617,VALID,18.4929,VALID,144,VALID,1.4416,
2004-07-19, 03:15:00,VALID,916.188,VALID,0,VALID,99.1839,VALID,-0.0509425,VALID,18.4731,VALID,143,VALID,1.52095,
2004-07-19, 03:16:00,VALID,916.191,VALID,0,VALID,99.2678,VALID,-0.0509425,VALID,18.4708,VALID,139,VALID,1.27474,
2004-07-19, 03:17:00,VALID,916.188,VALID,0,VALID,99.3212,VALID,-0.0169808,VALID,18.4634,VALID,153,VALID,1.10305,
2004-07-19, 03:18:00,VALID,916.2,VALID,0,VALID,99.2742,VALID,-0.0339617,VALID,18.4574,VALID,161,VALID,0.694169,
2004-07-19, 03:19:00,VALID,916.201,VALID,0,VALID,99.2729,VALID,-0.0679233,VALID,18.4613,VALID,144,VALID,1.21441,
2004-07-19, 03:20:00,VALID,916.184,VALID,0,VALID,99.2691,VALID,-0.0339617,VALID,18.4477,VALID,131,VALID,1.17397,
2004-07-19, 03:21:00,VALID,916.184,VALID,0,VALID,99.1025,VALID,0,VALID,18.4413,VALID,106,VALID,0.765625,
2004-07-19, 03:22:00,VALID,916.162,VALID,0,VALID,99.0771,VALID,-0.0339617,VALID,18.4118,VALID,98,VALID,0.71503,
2004-07-19, 03:23:00,VALID,916.15,VALID,0,VALID,99.1432,VALID,-0.0509425,VALID,18.3958,VALID,106,VALID,0.940874,
2004-07-19, 03:24:00,VALID,916.135,VALID,0,VALID,99.2347,VALID,-0.0509425,VALID,18.4025,VALID,103,VALID,1.12216,
2004-07-19, 03:25:00,VALID,916.121,VALID,0,VALID,99.1445,VALID,-0.0509425,VALID,18.3898,VALID,99,VALID,0.692649,
2004-07-19, 03:26:00,VALID,916.127,VALID,0,VALID,99.0504,VALID,-0.0679233,VALID,18.3643,VALID,73,VALID,0.332961,
2004-07-19, 03:27:00,VALID,916.129,VALID,0,VALID,99.0059,VALID,-0.0679233,VALID,18.325,VALID,35,VALID,0.257227,
2004-07-19, 03:28:00,VALID,916.119,VALID,0,VALID,99.0771,VALID,-0.0679233,VALID,18.2994,VALID,85,VALID,0.672057,
2004-07-19, 03:29:00,VALID,916.131,VALID,0,VALID,99.147,VALID,-0.0679233,VALID,18.2895,VALID,145,VALID,0.424733,
2004-07-19, 03:30:00,VALID,916.131,VALID,0,VALID,99.2093,VALID,-0.0679233,VALID,18.2637,VALID,147,VALID,0.463542,